TKJ4LV LCEN-LTAC

Flight info

Callsign TKJ4LV
Flight time 0h 53m
Altitude 32000
Route GIRNE DCT DOREN UA28 TELVO
Aircraft A321/M-SDE3FGHIRWY/LB1

Departure

Time 2026-04-15 15:03
Airport Ercan International Airport (LCEN)

Arrival

Time 2026-04-15 15:56
Airport Esenboğa International Airport (LTAC)
Time Latitude Longitude Altitude Speed Heading
2026-04-15 14:46 35.14977 33.50324 408 ft 0 kts 202°
2026-04-15 14:56 35.14980 33.50325 409 ft 2 kts 202°
2026-04-15 14:56 35.14994 33.50332 410 ft 2 kts 202°
2026-04-15 14:57 35.15008 33.50339 411 ft 2 kts 202°
2026-04-15 14:57 35.15022 33.50346 411 ft 2 kts 202°
2026-04-15 14:57 35.15033 33.50358 411 ft 2 kts 240°
2026-04-15 14:57 35.15038 33.50375 410 ft 2 kts 269°
2026-04-15 14:58 35.15037 33.50388 409 ft 0 kts 290°
2026-04-15 14:58 35.15038 33.50384 408 ft 3 kts 288°
2026-04-15 14:58 35.15045 33.50361 408 ft 0 kts 293°
2026-04-15 14:58 35.15046 33.50361 408 ft 0 kts 293°
2026-04-15 15:00 35.15048 33.50352 408 ft 6 kts 293°
2026-04-15 15:00 35.15087 33.50234 408 ft 18 kts 292°
2026-04-15 15:01 35.15138 33.50080 408 ft 21 kts 292°
2026-04-15 15:01 35.15192 33.49910 408 ft 21 kts 291°
2026-04-15 15:01 35.15245 33.49749 408 ft 17 kts 293°
2026-04-15 15:01 35.15317 33.49703 408 ft 6 kts 23°
2026-04-15 15:02 35.15369 33.49730 408 ft 12 kts 22°
2026-04-15 15:02 35.15424 33.49795 408 ft 11 kts 93°
2026-04-15 15:02 35.15375 33.49982 408 ft 55 kts 112°
2026-04-15 15:02 35.15119 33.50758 408 ft 137 kts 111°
2026-04-15 15:03 35.14697 33.52049 657 ft 181 kts 111°
2026-04-15 15:03 35.14265 33.53450 1649 ft 177 kts 99°
2026-04-15 15:03 35.14247 33.54899 2631 ft 175 kts 85°
2026-04-15 15:03 35.14290 33.56429 3307 ft 191 kts 90°
2026-04-15 15:04 35.14263 33.58113 3972 ft 208 kts 91°
2026-04-15 15:04 35.14220 33.59929 4623 ft 226 kts 91°
2026-04-15 15:04 35.14163 33.61936 5178 ft 250 kts 91°
2026-04-15 15:04 35.14094 33.64132 5909 ft 266 kts 91°
2026-04-15 15:05 35.14032 33.66438 6741 ft 278 kts 87°
2026-04-15 15:05 35.14520 33.68713 7615 ft 282 kts 56°
2026-04-15 15:05 35.15930 33.70314 8479 ft 284 kts 24°
2026-04-15 15:05 35.17836 33.70805 9316 ft 284 kts 354°
2026-04-15 15:06 35.21380 33.68895 10896 ft 292 kts 323°
2026-04-15 15:06 35.23126 33.67479 11367 ft 310 kts 324°
2026-04-15 15:06 35.24976 33.66014 11816 ft 328 kts 325°
2026-04-15 15:07 35.26957 33.64478 12396 ft 341 kts 325°
2026-04-15 15:07 35.28963 33.62938 13211 ft 346 kts 325°
2026-04-15 15:07 35.31028 33.61357 14094 ft 349 kts 326°
2026-04-15 15:07 35.33080 33.59791 14907 ft 352 kts 326°
2026-04-15 15:08 35.35175 33.58196 15736 ft 354 kts 326°
2026-04-15 15:08 35.37251 33.56614 16532 ft 357 kts 326°
2026-04-15 15:08 35.39366 33.55003 17297 ft 359 kts 326°
2026-04-15 15:08 35.41487 33.53387 18020 ft 362 kts 326°
2026-04-15 15:09 35.43624 33.51756 18678 ft 366 kts 326°
2026-04-15 15:09 35.45816 33.50083 19293 ft 370 kts 326°
2026-04-15 15:09 35.47992 33.48422 19860 ft 374 kts 326°
2026-04-15 15:09 35.50225 33.46717 20413 ft 378 kts 326°
2026-04-15 15:10 35.52458 33.45009 20936 ft 382 kts 326°
2026-04-15 15:10 35.54729 33.43270 21447 ft 385 kts 326°
2026-04-15 15:10 35.57027 33.41512 21961 ft 389 kts 326°
2026-04-15 15:10 35.59337 33.39740 22454 ft 392 kts 326°
2026-04-15 15:11 35.61688 33.37981 22921 ft 396 kts 329°
2026-04-15 15:11 35.64172 33.36524 23369 ft 401 kts 336°
2026-04-15 15:11 35.66813 33.35435 23825 ft 405 kts 343°
2026-04-15 15:11 35.69595 33.34622 24290 ft 408 kts 345°
2026-04-15 15:12 35.72374 33.33879 24719 ft 411 kts 345°
2026-04-15 15:12 35.75172 33.33142 25125 ft 414 kts 345°
2026-04-15 15:12 35.77992 33.32395 25528 ft 416 kts 345°
2026-04-15 15:12 35.80831 33.31635 25931 ft 419 kts 345°
2026-04-15 15:13 35.83686 33.30867 26318 ft 421 kts 345°
2026-04-15 15:13 35.86541 33.30097 26707 ft 423 kts 345°
2026-04-15 15:13 35.89437 33.29322 27086 ft 426 kts 346°
2026-04-15 15:13 35.92373 33.28739 27438 ft 430 kts 350°
2026-04-15 15:14 35.95365 33.28455 27790 ft 434 kts 355°
2026-04-15 15:14 35.98384 33.28460 28147 ft 437 kts 358°
2026-04-15 15:14 36.01442 33.28578 28504 ft 440 kts 359°
2026-04-15 15:14 36.04508 33.28661 28846 ft 441 kts 356°
2026-04-15 15:15 36.07583 33.28636 29260 ft 440 kts 356°
2026-04-15 15:15 36.10619 33.28582 29743 ft 439 kts 355°
2026-04-15 15:15 36.13644 33.28521 30222 ft 437 kts 355°
2026-04-15 15:15 36.16713 33.28474 30641 ft 437 kts 356°
2026-04-15 15:16 36.19759 33.28492 30965 ft 439 kts 356°
2026-04-15 15:16 36.22819 33.28531 31273 ft 441 kts 356°
2026-04-15 15:16 36.25871 33.28572 31599 ft 442 kts 356°
2026-04-15 15:16 36.28960 33.28610 31933 ft 443 kts 356°
2026-04-15 15:17 36.32051 33.28641 32081 ft 448 kts 356°
2026-04-15 15:17 36.35205 33.28670 32092 ft 456 kts 356°
2026-04-15 15:17 36.41680 33.28730 32103 ft 470 kts 356°
2026-04-15 15:18 36.48252 33.28795 32126 ft 475 kts 356°
2026-04-15 15:18 36.54886 33.28865 32136 ft 477 kts 356°
2026-04-15 15:19 36.61508 33.28933 32133 ft 477 kts 356°
2026-04-15 15:19 36.68178 33.29004 32141 ft 476 kts 356°
2026-04-15 15:20 36.74804 33.29075 32146 ft 476 kts 356°
2026-04-15 15:20 36.81510 33.29143 32155 ft 475 kts 356°
2026-04-15 15:21 36.88110 33.28886 32175 ft 473 kts 351°
2026-04-15 15:21 36.94647 33.27996 32189 ft 471 kts 349°
2026-04-15 15:22 37.01171 33.27020 32214 ft 471 kts 349°
2026-04-15 15:22 37.07650 33.26056 32205 ft 471 kts 349°
2026-04-15 15:23 37.14161 33.25091 32202 ft 472 kts 349°
2026-04-15 15:23 37.20705 33.24121 32200 ft 471 kts 349°
2026-04-15 15:24 37.27217 33.23157 32190 ft 471 kts 349°
2026-04-15 15:24 37.33699 33.22196 32187 ft 470 kts 349°
2026-04-15 15:25 37.40183 33.21233 32191 ft 470 kts 349°
2026-04-15 15:25 37.46706 33.20261 32189 ft 471 kts 349°
2026-04-15 15:26 37.53193 33.19292 32186 ft 471 kts 349°
2026-04-15 15:26 37.59672 33.18325 32186 ft 470 kts 349°
2026-04-15 15:27 37.66173 33.17352 32192 ft 470 kts 349°
2026-04-15 15:27 37.72677 33.16376 32193 ft 470 kts 349°
2026-04-15 15:28 37.79190 33.15398 32186 ft 471 kts 349°
2026-04-15 15:28 37.85645 33.14428 32186 ft 470 kts 349°
2026-04-15 15:29 37.92151 33.13448 32186 ft 471 kts 349°
2026-04-15 15:29 37.98676 33.12462 32189 ft 470 kts 349°
2026-04-15 15:30 38.05166 33.11489 32186 ft 470 kts 349°
2026-04-15 15:30 38.11658 33.10547 32189 ft 470 kts 350°
2026-04-15 15:31 38.18137 33.09607 32184 ft 469 kts 349°
2026-04-15 15:31 38.24625 33.08661 32180 ft 469 kts 349°
2026-04-15 15:32 38.31110 33.07716 32172 ft 469 kts 349°
2026-04-15 15:32 38.37570 33.06768 32175 ft 469 kts 349°
2026-04-15 15:33 38.44011 33.05822 32172 ft 468 kts 349°
2026-04-15 15:33 38.50516 33.04868 32172 ft 467 kts 349°
2026-04-15 15:34 38.56930 33.03924 32175 ft 468 kts 349°
2026-04-15 15:34 38.63399 33.02970 32174 ft 467 kts 349°
2026-04-15 15:35 38.69852 33.02019 32168 ft 467 kts 349°
2026-04-15 15:35 38.76260 33.01075 32166 ft 451 kts 349°
2026-04-15 15:36 38.79304 33.00629 32168 ft 436 kts 349°
2026-04-15 15:36 38.82311 33.00183 31787 ft 435 kts 349°
2026-04-15 15:36 38.85315 32.99733 31207 ft 432 kts 349°
2026-04-15 15:36 38.88269 32.99291 30639 ft 428 kts 349°
2026-04-15 15:37 38.91246 32.98844 30047 ft 425 kts 349°
2026-04-15 15:37 38.94162 32.98410 29463 ft 422 kts 350°
2026-04-15 15:37 38.97045 32.97982 28818 ft 423 kts 349°
2026-04-15 15:37 38.99990 32.97544 28259 ft 419 kts 349°
2026-04-15 15:38 39.02853 32.97118 27835 ft 416 kts 349°
2026-04-15 15:38 39.05691 32.96695 27379 ft 413 kts 349°
2026-04-15 15:38 39.08561 32.96265 26902 ft 410 kts 349°
2026-04-15 15:38 39.11385 32.95842 26421 ft 406 kts 349°
2026-04-15 15:39 39.14135 32.95430 25943 ft 403 kts 349°
2026-04-15 15:39 39.16865 32.95022 25492 ft 399 kts 349°
2026-04-15 15:39 39.19646 32.94604 25005 ft 395 kts 349°
2026-04-15 15:39 39.22333 32.94204 24534 ft 392 kts 349°
2026-04-15 15:40 39.25048 32.93827 24047 ft 389 kts 349°
2026-04-15 15:40 39.27733 32.93463 23555 ft 386 kts 349°
2026-04-15 15:40 39.30394 32.93102 23083 ft 382 kts 350°
2026-04-15 15:40 39.32999 32.92745 22627 ft 379 kts 350°
2026-04-15 15:41 39.35638 32.92505 22157 ft 379 kts 355°
2026-04-15 15:41 39.38260 32.92581 21700 ft 379 kts
2026-04-15 15:41 39.40905 32.92986 21255 ft 378 kts
2026-04-15 15:41 39.43480 32.93533 20795 ft 377 kts
2026-04-15 15:42 39.46072 32.94114 20332 ft 375 kts
2026-04-15 15:42 39.48641 32.94692 19867 ft 374 kts
2026-04-15 15:42 39.51181 32.95259 19400 ft 373 kts
2026-04-15 15:42 39.53722 32.95824 18926 ft 372 kts
2026-04-15 15:43 39.56258 32.96389 18460 ft 370 kts
2026-04-15 15:43 39.58811 32.96955 17996 ft 369 kts
2026-04-15 15:43 39.61323 32.97513 17535 ft 367 kts
2026-04-15 15:43 39.63841 32.98074 17073 ft 366 kts
2026-04-15 15:44 39.66331 32.98626 16601 ft 365 kts
2026-04-15 15:44 39.68837 32.99184 16129 ft 364 kts
2026-04-15 15:44 39.71334 32.99740 15660 ft 363 kts
2026-04-15 15:44 39.73815 33.00293 15185 ft 362 kts
2026-04-15 15:45 39.76273 33.00840 14713 ft 361 kts
2026-04-15 15:45 39.78756 33.01393 14234 ft 360 kts
2026-04-15 15:45 39.81209 33.01941 13764 ft 358 kts
2026-04-15 15:45 39.83670 33.02491 13290 ft 357 kts
2026-04-15 15:46 39.86100 33.03035 12836 ft 355 kts
2026-04-15 15:46 39.88533 33.03578 12411 ft 352 kts
2026-04-15 15:46 39.90916 33.04112 12181 ft 343 kts
2026-04-15 15:46 39.93213 33.04628 12046 ft 331 kts
2026-04-15 15:47 39.95467 33.05135 11913 ft 320 kts
2026-04-15 15:47 39.97626 33.05620 11721 ft 311 kts
2026-04-15 15:47 39.99711 33.06090 11604 ft 290 kts
2026-04-15 15:47 40.01678 33.06531 11500 ft 287 kts
2026-04-15 15:48 40.03608 33.07219 11334 ft 285 kts 22°
2026-04-15 15:48 40.05293 33.08544 11079 ft 281 kts 33°
2026-04-15 15:48 40.06845 33.10039 10812 ft 278 kts 34°
2026-04-15 15:48 40.08385 33.11551 10564 ft 274 kts 34°
2026-04-15 15:49 40.09904 33.13029 10313 ft 269 kts 34°
2026-04-15 15:49 40.11407 33.14478 10072 ft 265 kts 34°
2026-04-15 15:49 40.12879 33.15894 9775 ft 259 kts 33°
2026-04-15 15:49 40.14318 33.17273 9361 ft 254 kts 34°
2026-04-15 15:50 40.15735 33.18629 8934 ft 249 kts 34°
2026-04-15 15:50 40.17121 33.19956 8524 ft 244 kts 34°
2026-04-15 15:50 40.18483 33.21249 8185 ft 235 kts 31°
2026-04-15 15:50 40.19951 33.21959 7826 ft 221 kts
2026-04-15 15:51 40.21410 33.21598 7370 ft 213 kts 333°
2026-04-15 15:51 40.22524 33.20412 7040 ft 202 kts 308°
2026-04-15 15:51 40.23261 33.18921 6757 ft 193 kts 301°
2026-04-15 15:51 40.23943 33.17411 6641 ft 192 kts 300°
2026-04-15 15:52 40.24623 33.15901 6517 ft 192 kts 301°
2026-04-15 15:52 40.25286 33.14446 6355 ft 178 kts 300°
2026-04-15 15:52 40.25665 33.12971 6133 ft 171 kts 269°
2026-04-15 15:52 40.25240 33.11552 5936 ft 173 kts 231°
2026-04-15 15:53 40.24329 33.10514 5651 ft 172 kts 218°
2026-04-15 15:53 40.23362 33.09650 5346 ft 161 kts 216°
2026-04-15 15:53 40.22457 33.08845 5078 ft 154 kts 217°
2026-04-15 15:53 40.21587 33.08040 4885 ft 153 kts 218°
2026-04-15 15:54 40.20729 33.07227 4693 ft 153 kts 219°
2026-04-15 15:54 40.19877 33.06410 4501 ft 151 kts 219°
2026-04-15 15:54 40.19029 33.05597 4306 ft 150 kts 219°
2026-04-15 15:54 40.18177 33.04782 4111 ft 150 kts 219°
2026-04-15 15:55 40.17342 33.03984 3919 ft 148 kts 218°
2026-04-15 15:55 40.16514 33.03193 3724 ft 148 kts 218°
2026-04-15 15:55 40.15684 33.02393 3539 ft 147 kts 218°
2026-04-15 15:55 40.14851 33.01604 3349 ft 147 kts 218°
2026-04-15 15:56 40.14025 33.00834 3219 ft 146 kts 218°
2026-04-15 15:56 40.13221 33.00062 3148 ft 138 kts 219°
2026-04-15 15:56 40.12602 32.99456 3146 ft 71 kts 216°
2026-04-15 15:56 40.12319 32.99236 3146 ft 42 kts 198°
2026-04-15 15:57 40.12082 32.99187 3146 ft 28 kts 187°
2026-04-15 15:57 40.11941 32.99133 3146 ft 15 kts 217°
2026-04-15 15:57 40.11862 32.99055 3146 ft 13 kts 215°
2026-04-15 15:57 40.11794 32.99063 3146 ft 10 kts 130°
2026-04-15 15:58 40.11742 32.99119 3146 ft 9 kts 161°
2026-04-15 15:58 40.11713 32.99177 3146 ft 8 kts 77°
2026-04-15 15:58 40.11730 32.99240 3146 ft 5 kts 86°
2026-04-15 15:58 40.11709 32.99268 3146 ft 4 kts 158°
2026-04-15 15:59 40.11686 32.99279 3146 ft 2 kts 159°
2026-04-15 15:59 40.11674 32.99285 3146 ft 1 kts 159°
2026-04-15 15:59 40.11673 32.99285 3146 ft 0 kts 159°